Stations météo

Publicité
Troyes, France (7168): Température de l'air & dewpoint: 04.12.2019 20:00:00 - 10.12.2019 20:00:00 (CET)Troyes, France (7168): Température de l'air 5cm: 04.12.2019 20:00:00 - 10.12.2019 20:00:00 (CET)Troyes, France (7168): Température de l'air -20cm & Température de l'air -100cm: 04.12.2019 20:00:00 - 10.12.2019 20:00:00 (CET)Troyes, France (7168): Vitesse du vent & gusts: 04.12.2019 20:00:00 - 10.12.2019 20:00:00 (CET)Troyes, France (7168): Direction du vent: 04.12.2019 20:00:00 - 10.12.2019 20:00:00 (CET)Troyes, France (7168): reduced air pressure: 04.12.2019 20:00:00 - 10.12.2019 20:00:00 (CET)Troyes, France (7168): visibility: 04.12.2019 20:00:00 - 10.12.2019 20:00:00 (CET)Troyes, France (7168): Ensoleillement: 04.12.2019 20:00:00 - 10.12.2019 20:00:00 (CET)Troyes, France (7168): Quantités de précipitations: 04.12.2019 20:00:00 - 10.12.2019 20:00:00 (CET)
Date & Time tt [°C] td [°C] tt 5cm [°C] tt -20cm [°C] tt -100cm [°C] ff [km/h] ff [knt] fx [km/h] fx [knt] dd ppp [hPa] vv [km] sd [min] rr [mm]
10.12.2019 20:00:00 4,5 0,4 3,9 6,2 10,1 19 10 33 18 S 1022,7 20 0 0,0
10.12.2019 19:00:00 4,4 1,1 2,7 6,2 10,1 20 11 27 15 S 1023,1 20 0 0,0
10.12.2019 18:00:00 4,4 1,2 3,2 6,2 10,1 14 8 23 13 SSE 1024,0 20 0 0,0
10.12.2019 17:00:00 4,7 1,7 4,0 6,2 10,1 20 11 29 16 S 1024,7 20 0 0,0
10.12.2019 16:00:00 5,3 2,1 4,7 6,2 10,1 14 8 29 16 S 1025,7 20 29 0,0
10.12.2019 15:00:00 6,5 2,2 6,0 6,2 10,1 21 11 30 16 S 1026,4 20 29 0,0
10.12.2019 14:00:00 6,3 2,4 6,7 6,2 10,1 19 11 30 16 S 1027,2 19 49 0,0
10.12.2019 13:00:00 5,7 1,6 6,7 6,3 10,1 21 11 31 17 S 1028,4 20 58 0,0
10.12.2019 12:00:00 5,2 1,5 6,4 6,4 10,1 18 10 26 14 SSE 1029,3 18 60 0,0
10.12.2019 11:00:00 3,3 1,2 3,1 6,5 10,1 9 5 13 7 SE 1029,9 17 32 0,0
10.12.2019 10:00:00 1,2 0,2 -1,9 6,5 10,1 6 3 11 6 SSW 1030,6 11 0 0,0
10.12.2019 09:00:00 -0,6 -1,0 -4,0 6,7 10,1 6 3 8 4 ESE 1030,2 10 0 0,0
10.12.2019 08:00:00 -1,2 -1,6 -5,2 6,8 10,1 4 2 6 4 ESE 1030,2 12 0 0,0
10.12.2019 07:00:00 -0,8 -1,4 -4,4 6,9 10,1 4 2 8 4 E 1029,9 15 0 0,0
10.12.2019 06:00:00 -0,8 -1,5 -4,8 7,0 10,1 3 2 6 3 E 1029,6 16 0 0,0
10.12.2019 05:00:00 0,8 -1,0 -1,7 7,1 10,1 4 2 16 9 ESE 1029,4 20 0 0,0
10.12.2019 04:00:00 1,1 -0,5 -1,2 7,2 10,1 13 7 19 10 W 1029,4 20 0 0,0
10.12.2019 03:00:00 1,5 -0,3 -0,9 7,3 10,1 15 8 18 10 W 1028,4 20 0 0,0
10.12.2019 02:00:00 2,3 0,0 0,4 7,4 10,1 16 8 24 13 W 1027,9 20 0 0,0
10.12.2019 01:00:00 2,1 0,2 -0,3 7,5 10,1 18 10 22 12 W 1027,4 20 0 0,0
10.12.2019 00:00:00 2,1 0,3 -1,2 7,6 10,1 14 8 19 10 W 1026,5 20 0 0,0
09.12.2019 23:00:00 2,3 0,7 0,7 7,6 10,1 14 7 23 12 WNW 1025,1 20 0 0,0
09.12.2019 22:00:00 5,1 1,9 3,3 7,7 10,1 19 10 29 16 NW 1024,0 20 0 0,0
09.12.2019 21:00:00 4,6 1,6 3,4 7,7 10,1 15 8 33 18 NW 1022,8 20 0 0,0
09.12.2019 20:00:00 5,5 2,0 4,3 7,8 10,1 27 15 39 21 NW 1020,9 20 0 0,0
09.12.2019 19:00:00 6,5 2,6 5,2 7,7 10,1 29 15 46 25 NW 1019,0 20 0 0,0
09.12.2019 18:00:00 7,2 3,6 6,1 7,8 10,1 29 16 46 25 NW 1017,4 20 0 0,0
09.12.2019 17:00:00 7,4 3,4 6,1 7,7 10,1 33 18 51 28 NW 1015,3 20 0 0,0
09.12.2019 16:00:00 7,3 4,6 6,0 7,7 10,1 34 19 65 35 NW 1013,6 20 22 0,2
09.12.2019 15:00:00 8,6 5,3 7,4 7,6 10,1 42 23 60 33 WNW 1011,3 20 28 0,0
09.12.2019 14:00:00 8,5 5,8 7,9 7,6 10,1 36 19 73 40 WNW 1009,7 20 4 0,0
09.12.2019 13:00:00 9,4 6,5 7,8 7,6 10,1 43 23 61 33 WNW 1007,7 20 26 0,0
09.12.2019 12:00:00 8,5 6,5 7,0 7,6 10,1 46 25 69 37 W 1006,1 10 0 0,2
09.12.2019 11:00:00 8,0 6,0 6,6 7,6 10,1 40 22 60 33 WSW 1005,0 8 0 1,6
09.12.2019 10:00:00 7,8 5,6 6,4 7,7 10,1 39 21 60 32 WSW 1004,7 15 19 0,2
09.12.2019 09:00:00 7,6 5,2 6,3 7,7 10,1 36 19 61 33 WSW 1004,6 20 3 0,2
09.12.2019 08:00:00 7,4 5,7 6,2 7,7 10,1 33 18 55 30 SW 1004,6 10 0 0,8
09.12.2019 07:00:00 7,5 5,8 6,4 7,8 10,1 37 20 54 29 SW 1004,8 7 0 0,4
09.12.2019 06:00:00 7,8 5,1 6,3 7,8 10,1 35 19 58 31 SW 1005,1 17 0 0,2
09.12.2019 05:00:00 8,0 4,8 7,0 7,8 10,1 40 21 64 34 SW 1005,5 20 0 0,0
09.12.2019 04:00:00 8,1 4,9 6,5 7,9 10,1 34 18 56 31 SW 1006,2 20 0 0,0
09.12.2019 03:00:00 7,8 4,9 6,1 7,9 10,1 38 21 54 29 SW 1006,7 20 0 0,0
09.12.2019 02:00:00 7,7 5,5 6,0 8,0 10,1 33 18 51 27 SW 1007,6 20 0 0,0
09.12.2019 01:00:00 7,3 5,4 5,8 8,0 10,1 29 16 46 25 SW 1008,0 20 0 0,0
09.12.2019 00:00:00 7,2 5,0 5,6 8,0 10,1 24 13 74 40 SW 1008,7 20 0 2,0
08.12.2019 23:00:00 8,6 7,2 7,7 8,0 10,1 30 16 60 33 SW 1008,7 6 0 1,2
08.12.2019 22:00:00 8,8 6,8 7,7 8,0 10,1 30 16 50 27 SW 1009,2 11 0 0,0
08.12.2019 21:00:00 8,9 6,2 7,3 8,0 10,1 34 19 52 28 SW 1009,7 19 0 0,0
08.12.2019 20:00:00 8,5 6,5 6,8 8,0 10,1 25 14 42 23 WSW 1009,8 20 0 0,0
08.12.2019 19:00:00 9,0 6,4 7,2 7,9 10,1 25 14 41 22 W 1009,3 20 0 0,0
08.12.2019 18:00:00 10,1 8,0 8,6 7,8 10,1 20 11 37 20 WSW 1008,9 20 0 0,2
08.12.2019 17:00:00 9,2 8,6 8,8 7,8 10,1 24 13 55 30 W 1009,2 2,5 0 1,4
08.12.2019 16:00:00 11,9 11,1 11,0 7,7 10,1 29 16 44 24 SSW 1008,4 9 0 0,2
08.12.2019 15:00:00 11,6 10,8 10,9 7,6 10,1 29 16 45 25 SSW 1008,8 6 0 0,0
08.12.2019 14:00:00 11,5 10,6 10,7 7,5 10,1 32 17 47 26 SSW 1009,4 7 0 0,0
08.12.2019 13:00:00 11,3 10,4 10,5 7,5 10,1 35 19 50 27 SSW 1010,3 6 0 0,2
08.12.2019 12:00:00 11,2 9,9 10,1 7,4 10,1 35 19 50 27 SSW 1011,1 19 0 0,6
08.12.2019 11:00:00 10,9 9,7 10,2 7,4 10,2 33 18 47 25 SSW 1012,2 11 0 0,2
08.12.2019 10:00:00 11,4 9,3 10,7 7,4 10,2 30 16 45 25 SSW 1012,7 20 0 0,0
08.12.2019 09:00:00 11,0 9,3 9,9 7,3 10,2 31 17 45 25 SSW 1013,1 20 0 0,0
08.12.2019 08:00:00 10,3 8,9 9,5 7,2 10,2 18 10 37 20 SSW 1013,4 20 0 0,0
08.12.2019 07:00:00 10,5 8,3 9,7 7,2 10,1 23 12 48 26 SSW 1013,6 20 0 0,0
08.12.2019 06:00:00 10,2 8,3 9,1 7,2 10,2 27 14 41 22 SSW 1014,2 20 0 0,0
08.12.2019 05:00:00 9,6 8,0 9,1 7,1 10,2 20 11 29 15 S 1015,0 18 0 0,0
08.12.2019 04:00:00 9,8 8,2 9,1 7,1 10,2 19 10 30 16 SSW 1016,1 20 0 0,0
08.12.2019 03:00:00 9,8 8,4 9,2 7,1 10,2 19 11 36 19 SSW 1016,8 20 0 0,0
08.12.2019 02:00:00 9,7 8,1 8,6 7,0 10,2 22 12 31 17 S 1017,3 20 0 0,0
08.12.2019 01:00:00 9,2 8,3 8,1 7,0 10,3 15 8 21 12 S 1018,7 17 0 0,0
08.12.2019 00:00:00 8,8 8,2 8,2 7,0 10,3 16 9 23 13 S 1019,0 20 0 0,0
07.12.2019 23:00:00 9,1 7,9 8,3 6,9 10,2 18 10 27 15 S 1019,4 20 0 0,0
07.12.2019 22:00:00 8,6 7,7 8,1 6,9 10,3 18 10 21 12 S 1019,7 20 0 0,0
07.12.2019 21:00:00 8,5 7,4 8,1 6,9 10,3 13 7 18 10 S 1020,3 20 0 0,0
07.12.2019 20:00:00 8,6 7,5 8,0 6,8 10,3 13 7 18 10 S 1020,4 20 0 0,0
07.12.2019 19:00:00 8,6 7,5 8,1 6,8 10,3 14 8 17 9 S 1020,2 20 0 0,0
07.12.2019 18:00:00 8,8 7,7 8,2 6,7 10,3 12 6 17 9 SSW 1020,1 20 0 0,0
07.12.2019 17:00:00 9,2 8,0 8,7 6,6 10,3 11 6 19 11 SSW 1020,0 20 0 0,0
07.12.2019 16:00:00 10,1 8,2 9,8 6,5 10,3 14 8 22 12 WSW 1019,7 20 0 0,0
07.12.2019 15:00:00 10,6 8,5 10,5 6,4 10,3 13 7 23 13 SW 1019,1 20 0 0,0
07.12.2019 14:00:00 10,9 8,3 10,1 6,2 10,3 18 10 26 14 WSW 1019,2 20 14 0,0
07.12.2019 13:00:00 10,3 8,9 9,7 6,1 10,3 16 8 26 14 WSW 1019,4 20 0 0,0
07.12.2019 12:00:00 10,2 8,6 9,8 6,1 10,4 18 10 29 16 WSW 1019,9 20 0 0,0
07.12.2019 11:00:00 10,0 8,9 9,2 6,0 10,3 18 10 24 13 SW 1019,7 20 0 0,0
07.12.2019 10:00:00 9,4 8,9 8,5 5,9 10,3 11 6 23 12 SW 1019,2 15 0 0,0
07.12.2019 09:00:00 9,1 8,3 8,4 5,8 10,4 16 9 23 12 SSW 1018,8 12 0 0,0
07.12.2019 08:00:00 9,3 8,2 8,5 5,7 10,4 16 9 33 18 SW 1018,2 20 0 0,0
07.12.2019 07:00:00 9,4 8,3 8,4 5,6 10,4 20 11 32 17 WSW 1017,8 20 0 0,2
07.12.2019 06:00:00 9,2 8,4 8,4 5,6 10,4 19 10 34 18 SW 1017,2 15 0 0,0
07.12.2019 05:00:00 9,3 8,4 8,3 5,5 10,4 19 10 27 15 SW 1016,8 7 0 0,4
07.12.2019 04:00:00 9,1 8,6 7,7 5,4 10,4 16 9 30 16 SW 1016,5 2,7 0 0,4
07.12.2019 03:00:00 8,3 7,7 7,8 5,3 10,4 19 10 33 18 SSW 1016,4 13 0 0,0
07.12.2019 02:00:00 9,5 8,3 7,9 5,2 10,4 21 11 33 18 SW 1016,0 20 0 0,0
07.12.2019 01:00:00 8,6 7,7 7,8 5,1 10,4 22 12 34 18 SSW 1015,9 20 0 0,0
07.12.2019 00:00:00 8,4 7,6 7,7 5,0 10,5 18 10 39 21 S 1016,0 19 0 0,2
06.12.2019 23:00:00 8,5 7,4 7,2 4,9 10,5 28 15 46 25 SSW 1015,6 17 0 0,0
06.12.2019 22:00:00 7,7 7,1 6,8 4,8 10,5 32 18 46 25 SSW 1015,2 4,9 0 0,2
06.12.2019 21:00:00 7,4 6,7 6,2 4,7 10,5 30 16 46 25 SSW 1015,2 2,6 0 0,0
06.12.2019 20:00:00 7,0 5,8 5,4 4,7 10,5 20 11 40 22 S 1016,1 20 0 0,0
06.12.2019 19:00:00 6,1 4,7 5,0 4,6 10,5 27 14 40 21 S 1016,0 20 0 0,6
06.12.2019 18:00:00 5,8 4,6 4,6 4,5 10,5 25 13 42 23 S 1016,4 16 0 0,0
06.12.2019 17:00:00 5,2 4,3 4,4 4,5 10,5 16 9 29 16 S 1016,8 10 0 0,2
06.12.2019 16:00:00 5,1 3,9 4,5 4,4 10,5 13 7 25 13 SSE 1017,5 11 0 0,0
06.12.2019 15:00:00 5,1 3,9 4,4 4,3 10,5 16 9 28 15 S 1017,9 11 0 0,0
06.12.2019 14:00:00 4,6 3,3 4,4 4,3 10,6 8 4 17 9 SSE 1018,5 10 0 0,0
06.12.2019 13:00:00 4,2 3,2 4,1 4,3 10,6 11 6 22 12 SSE 1019,4 8 0 0,0
06.12.2019 12:00:00 4,0 3,1 3,9 4,3 10,6 13 7 24 13 S 1020,3 7 0 0,0
06.12.2019 11:00:00 3,7 2,7 2,8 4,3 10,6 23 12 38 21 SSW 1020,8 7 0 0,0
06.12.2019 10:00:00 2,5 1,8 0,6 4,3 10,6 10 6 14 7 S 1020,8 7 44 0,0
06.12.2019 09:00:00 0,7 0,1 -0,6 4,3 10,6 3 2 10 5 E 1020,9 6 12 0,0
06.12.2019 08:00:00 0,4 0,0 -0,6 4,3 10,6 8 5 17 9 SE 1020,8 6 0 0,0
06.12.2019 07:00:00 0,2 -0,2 -1,1 4,3 10,6 15 8 19 10 SSE 1021,0 6 0 0,0
06.12.2019 06:00:00 -0,3 -0,6 -1,7 4,3 10,7 0 0 0 0 N 1021,4 4,5 0 0,0
06.12.2019 05:00:00 -0,2 -0,3 -1,7 4,3 10,6 0 0 17 9 N 1021,8 3,8 0 0,0
06.12.2019 04:00:00 0,5 0,4 -0,6 4,3 10,7 3 2 9 5 ESE 1022,2 2,7 0 0,0
06.12.2019 03:00:00 0,4 0,3 0,0 4,3 10,7 5 3 14 7 SE 1022,6 2,6 0 0,0
06.12.2019 02:00:00 0,1 0,1 -0,4 4,3 10,7 7 4 14 7 SE 1022,9 1,2 0 0,0
06.12.2019 01:00:00 -0,4 -0,4 -0,7 4,3 10,7 8 5 15 8 S 1023,8 3,4 0 0,0
06.12.2019 00:00:00 -0,7 -0,7 -0,7 4,3 10,7 11 6 16 9 SSE 1024,2 3,4 0 0,0
05.12.2019 23:00:00 -0,8 -0,8 -1,0 4,3 10,7 12 7 15 8 S 1024,3 0,6 0 0,0
05.12.2019 22:00:00 -1,1 -1,1 -1,4 4,3 10,7 10 6 14 8 S 1024,5 0,9 0 0,0
05.12.2019 21:00:00 -1,5 -1,6 -1,8 4,4 10,7 8 5 11 6 SSE 1024,6 1,1 0 0,0
05.12.2019 20:00:00 -1,9 -2,0 -1,9 4,4 10,7 6 4 10 5 S 1024,9 0,2 0 0,0
05.12.2019 19:00:00 -2,0 -2,1 -1,9 4,4 10,7 3 1 10 5 SSE 1025,1 0,2 0 0,0
05.12.2019 18:00:00 -1,8 -1,9 -1,7 4,4 10,8 3 2 9 5 SSW 1025,3 0,1 0 0,0
05.12.2019 17:00:00 -1,5 -1,6 -1,4 4,5 10,8 8 5 11 6 SE 1025,2 0,2 0 0,0
05.12.2019 16:00:00 -1,1 -1,1 -0,5 4,5 10,8 4 2 11 6 S 1024,9 0,2 0 0,0
05.12.2019 15:00:00 -0,5 -0,5 0,1 4,5 10,8 6 4 10 6 SSE 1024,6 0,6 0 0,0
05.12.2019 14:00:00 -0,5 -0,5 -0,2 4,5 10,8 8 4 13 7 S 1024,7 0,4 0 0,0
05.12.2019 13:00:00 -1,5 -1,5 -1,0 4,6 10,8 3 2 11 6 NW 1025,5 0,3 0 0,0
05.12.2019 12:00:00 -2,4 -2,5 -1,8 4,6 10,8 4 2 7 4 NNW 1026,1 0,7 0 0,0
05.12.2019 11:00:00 -3,1 -3,4 -2,9 4,6 10,8 5 3 11 6 SE 1025,6 0,7 0 0,0
05.12.2019 10:00:00 -3,6 -3,9 -3,5 4,7 10,8 7 4 10 5 SE 1024,8 0,8 0 0,0
05.12.2019 09:00:00 -4,0 -4,3 -6,6 4,7 10,8 5 3 10 5 S 1024,7 0,9 0 0,0
05.12.2019 08:00:00 -5,5 -6,5 -10,1 4,8 10,8 4 2 6 3 SE 1024,2 7 0 0,0
05.12.2019 07:00:00 -6,2 -7,0 -10,1 4,8 10,8 0 0 4 2 N 1024,2 7 0 0,0
05.12.2019 06:00:00 -4,9 -5,4 -10,1 4,8 10,8 2 1 3 2 NNW 1023,4 6 0 0,0
05.12.2019 05:00:00 -6,2 -7,1 -9,7 4,9 10,8 2 1 5 3 SSE 1023,4 9 0 0,0
05.12.2019 04:00:00 -4,8 -5,3 -9,1 4,9 10,8 2 1 4 2 ENE 1023,0 7 0 0,0
05.12.2019 03:00:00 -5,2 -5,7 -8,9 5,0 10,9 2 1 5 3 E 1022,8 1,0 0 0,0
05.12.2019 02:00:00 -3,4 -3,8 -8,6 5,0 10,9 3 1 9 5 NE 1022,4 8 0 0,0
05.12.2019 01:00:00 -3,9 -4,4 -8,5 5,0 10,9 8 4 10 5 S 1022,5 8 0 0,0
05.12.2019 00:00:00 -4,0 -4,5 -8,0 5,1 10,9 0 0 6 3 N 1021,8 8 0 0,0
04.12.2019 23:00:00 -3,8 -4,3 -7,1 5,1 10,9 6 3 10 5 WNW 1021,6 6 0 0,0
04.12.2019 22:00:00 -2,9 -3,6 -7,3 5,1 10,9 2 1 6 3 N 1021,4 4,3 0 0,0
04.12.2019 21:00:00 -2,6 -3,6 -6,7 5,1 10,9 3 1 7 4 SSW 1021,1 8 0 0,0
04.12.2019 20:00:00 -2,3 -2,9 -6,0 5,2 10,9 6 3 8 4 S 1021,1 5 0 0,0

tt = Température de l'air
td = dewpoint
tt 5cm = Température de l'air 5cm
tt -20cm = Température de l'air -20cm
tt -100cm = Température de l'air -100cm
ff = Vitesse du vent
fx = gusts
dd = Direction du vent
ppp = reduced air pressure
vv = visibility
sd = Ensoleillement
rr = Quantités de précipitations

stations d'obs. à proximité